W4GHW Weather Reports


time (UTC)temp
C
wind
direction
speed
KPH
gust
KPH
rain 1hr
cm
rain 24hr
cm
rain mn
cm
humidity
%
barometer
mb
20260906125043 25 297 6.4 12.9 0.00 0.00 0.00 89 1013.7
20260906124815 25 322 3.2 11.3 0.00 0.00 0.00 90 1014.7
20260906124540 25 310 1.6 11.3 0.00 0.00 0.00 90 1013.7
20260906124038 25 265 1.6 6.4 0.00 0.00 0.00 91 1013.5
20260906123532 24 296 1.6 9.7 0.00 0.00 0.00 92 1013.6
20260906123339 25 248 3.2 9.7 0.00 0.00 0.00 92 1014.5
20260906123006 24 286 1.6 9.7 0.00 0.00 0.00 92 1013.5
20260906122504 24 282 3.2 9.7 0.00 0.00 0.00 92 1013.5
20260906122004 23 287 1.6 8.0 0.00 0.00 0.00 92 1013.5
20260906121823 24 281 3.2 8.0 0.00 0.00 0.00 92 1014.5
20260906121558 23 264 3.2 8.0 0.00 0.00 0.00 92 1013.5
20260906121056 23 263 3.2 9.7 0.00 0.00 0.00 92 1013.4
20260906120550 23 271 3.2 6.4 0.00 0.00 0.00 92 1013.3
20260906120348 23 265 4.8 6.4 0.00 0.00 0.00 92 1014.3
20260906120031 23 278 1.6 6.4 0.00 0.00 0.00 92 1013.3
20260906115524 23 273 3.2 8.0 0.00 0.00 0.00 92 1013.2
20260906115021 23 256 1.6 8.0 0.00 0.00 0.00 92 1013.1
20260906114826 23 268 3.2 8.0 0.00 0.00 0.00 92 1014.1
20260906114535 23 261 1.6 4.8 0.00 0.00 0.00 92 1013.1
20260906114017 23 283 1.6 4.8 0.00 0.00 0.00 92 1012.9
20260906113516 23 269 1.6 6.4 0.00 0.00 0.00 92 1012.9
20260906113328 23 265 1.6 6.4 0.00 0.00 0.00 92 1013.9
20260906113017 23 267 1.6 6.4 0.00 0.00 0.00 92 1013.0
20260906112510 23 275 1.6 6.4 0.00 0.00 0.00 92 1012.9
20260906112008 23 271 1.6 4.8 0.00 0.00 0.00 92 1013.0
20260906111827 23 270 1.6 4.8 0.00 0.00 0.00 92 1014.0
20260906111504 23 288 1.6 6.4 0.00 0.00 0.00 92 1013.0
20260906111101 23 259 3.2 6.4 0.00 0.00 0.00 92 1012.9
20260906111002 23 294 3.2 6.4 0.00 0.00 0.00 92 1012.9
20260906110558 23 266 1.6 4.8 0.00 0.00 0.00 92 1012.9
20260906110329 23 286 3.2 4.8 0.00 0.00 0.00 92 1013.8
20260906110057 23 284 1.6 4.8 0.00 0.00 0.00 92 1012.8
20260906105553 23 264 1.6 6.4 0.00 0.00 0.00 92 1012.8
20260906105046 23 257 1.6 6.4 0.00 0.00 0.00 92 1012.7
20260906104851 23 259 3.2 6.4 0.00 0.00 0.00 92 1013.8
20260906104524 23 226 1.6 6.4 0.00 0.00 0.00 92 1012.8
20260906104020 23 295 3.2 6.4 0.00 0.00 0.00 92 1012.7
20260906103517 23 283 1.6 6.4 0.00 0.00 0.00 92 1012.6
20260906103333 23 287 1.6 6.4 0.00 0.00 0.00 92 1013.5
20260906103014 23 269 3.2 6.4 0.00 0.00 0.00 92 1012.6
20260906102512 23 270 1.6 9.7 0.00 0.00 0.00 92 1012.5
20260906102010 23 281 3.2 9.7 0.00 0.00 0.00 92 1012.6
20260906101832 24 268 3.2 12.9 0.00 0.00 0.00 92 1013.4
20260906101517 23 283 3.2 12.9 0.00 0.00 0.00 92 1012.6
20260906101007 23 262 3.2 8.0 0.00 0.00 0.00 92 1012.6
20260906100506 23 294 1.6 6.4 0.00 0.00 0.00 92 1012.5
20260906100314 23 284 3.2 6.4 0.00 0.00 0.00 92 1013.4
20260906100058 23 292 3.2 6.4 0.00 0.00 0.00 92 1012.6
20260906095558 23 279 1.6 6.4 0.00 0.00 0.00 92 1012.5
20260906095054 23 261 1.6 4.8 0.00 0.00 0.00 92 1012.4
20260906094818 23 269 1.6 4.8 0.00 0.00 0.00 91 1013.3
20260906094551 23 256 1.6 4.8 0.00 0.00 0.00 91 1012.3
20260906094050 23 264 0.0 3.2 0.00 0.00 0.00 91 1012.3
20260906093547 23 264 1.6 3.2 0.00 0.00 0.00 91 1012.2
20260906093328 24 264 1.6 3.2 0.00 0.00 0.00 91 1013.0
20260906093038 23 264 0.0 3.2 0.00 0.00 0.00 91 1012.1
20260906092538 23 264 0.0 3.2 0.00 0.00 0.00 91 1012.1
20260906092036 23 246 0.0 4.8 0.00 0.00 0.00 91 1012.2
20260906091817 23 246 1.6 4.8 0.00 0.00 0.00 91 1013.1
20260906091528 23 246 0.0 4.8 0.00 0.00 0.00 91 1012.2
20260906091026 23 240 0.0 3.2 0.00 0.00 0.00 91 1012.2
20260906090526 23 242 0.0 3.2 0.00 0.00 0.00 91 1012.0
20260906090329 24 242 1.6 3.2 0.00 0.00 0.00 91 1012.9
20260906090020 23 242 0.0 3.2 0.00 0.00 0.00 91 1012.0
20260906085518 23 242 0.0 3.2 0.00 0.00 0.00 91 1012.0
20260906085013 23 242 0.0 3.2 0.00 0.00 0.00 91 1012.1
20260906084821 24 242 0.0 3.2 0.00 0.00 0.00 91 1012.9
20260906084510 23 242 0.0 3.2 0.00 0.00 0.00 91 1012.1
20260906084007 23 242 0.0 3.2 0.00 0.00 0.00 91 1011.9
20260906083510 23 242 0.0 3.2 0.00 0.00 0.00 91 1011.9
20260906083313 24 242 0.0 3.2 0.00 0.00 0.00 91 1012.7
20260906083100 23 242 0.0 3.2 0.00 0.00 0.00 90 1011.8
20260906083003 23 242 0.0 3.2 0.00 0.00 0.00 90 1011.8
20260906082557 23 242 0.0 1.6 0.00 0.00 0.00 90 1011.9
20260906082054 23 242 0.0 1.6 0.00 0.00 0.00 90 1012.0
20260906081821 24 242 0.0 1.6 0.00 0.00 0.00 90 1012.8
20260906081549 24 242 0.0 1.6 0.00 0.00 0.00 90 1011.9
20260906081048 24 242 0.0 1.6 0.00 0.00 0.00 90 1011.8
20260906080546 24 246 0.0 4.8 0.00 0.00 0.00 90 1011.8
20260906080313 24 246 1.6 4.8 0.00 0.00 0.00 90 1012.7
20260906080041 24 246 0.0 4.8 0.00 0.00 0.00 90 1011.8
20260906075539 24 223 0.0 4.8 0.00 0.00 0.00 90 1011.8
20260906075032 24 249 0.0 4.8 0.00 0.00 0.00 90 1011.8
20260906074823 24 249 1.6 4.8 0.00 0.00 0.00 90 1012.7
20260906074528 24 249 1.6 4.8 0.00 0.00 0.00 90 1011.7
20260906074025 24 236 0.0 4.8 0.00 0.00 0.00 90 1011.5
20260906073522 24 236 0.0 4.8 0.00 0.00 0.00 90 1011.4
20260906073353 24 233 1.6 4.8 0.00 0.00 0.00 90 1012.3
20260906073056 24 242 1.6 6.4 0.00 0.00 0.00 90 1011.4
20260906072557 24 218 1.6 6.4 0.00 0.00 0.00 90 1011.5
20260906072052 24 245 1.6 6.4 0.00 0.00 0.00 90 1011.7
20260906071819 25 284 1.6 4.8 0.00 0.00 0.00 90 1012.6
20260906071551 24 261 1.6 4.8 0.00 0.00 0.00 90 1011.7
20260906071046 24 284 1.6 4.8 0.00 0.00 0.00 90 1011.9
20260906070544 24 252 0.0 6.4 0.00 0.00 0.00 89 1011.9
20260906070326 25 239 3.2 6.4 0.00 0.00 0.00 89 1012.9
20260906070033 24 261 1.6 6.4 0.00 0.00 0.00 89 1012.2
20260906065534 24 273 3.2 6.4 0.00 0.00 0.00 89 1012.2
20260906065032 24 257 1.6 4.8 0.00 0.00 0.00 89 1012.1
20260906064815 25 272 1.6 4.8 0.00 0.00 0.00 89 1013.1
20260906064521 24 260 1.6 4.8 0.00 0.00 0.00 89 1012.3
20260906064021 24 256 1.6 4.8 0.00 0.00 0.00 89 1012.4
20260906063518 24 269 1.6 4.8 0.00 0.00 0.00 89 1012.5
20260906063320 25 284 3.2 4.8 0.00 0.00 0.00 89 1013.4
20260906063010 25 287 1.6 4.8 0.00 0.00 0.00 88 1012.5
20260906062507 25 296 1.6 4.8 0.00 0.00 0.00 88 1012.7
20260906062010 25 250 1.6 4.8 0.00 0.00 0.00 88 1012.7
20260906061829 25 285 1.6 4.8 0.00 0.00 0.00 88 1013.8
20260906061603 25 255 1.6 4.8 0.00 0.00 0.00 88 1012.7
20260906061502 25 255 1.6 4.8 0.00 0.00 0.00 88 1012.8
20260906061058 25 248 0.0 6.4 0.00 0.00 0.00 88 1012.8
20260906060553 25 257 0.0 6.4 0.00 0.00 0.00 88 1012.9
20260906060346 25 227 3.2 6.4 0.00 0.00 0.00 88 1013.9
20260906060032 25 254 1.6 8.0 0.00 0.00 0.00 88 1012.8
20260906055523 25 264 3.2 8.0 0.00 0.00 0.00 89 1012.9
20260906055022 25 261 3.2 6.4 0.00 0.00 0.00 88 1013.0
20260906054813 25 277 3.2 6.4 0.00 0.00 0.00 89 1014.0
20260906054535 25 298 1.6 4.8 0.00 0.00 0.00 89 1013.1
20260906054015 25 296 1.6 4.8 0.00 0.00 0.00 89 1013.2
20260906053512 25 294 0.0 4.8 0.00 0.00 0.00 89 1013.2
20260906053324 25 313 1.6 4.8 0.00 0.00 0.00 89 1014.3
20260906053008 25 325 1.6 4.8 0.00 0.00 0.00 89 1013.3
20260906052505 25 308 1.6 6.4 0.00 0.00 0.00 89 1013.3
20260906052100 25 311 1.6 6.4 0.00 0.00 0.00 89 1013.2
20260906052003 25 284 1.6 6.4 0.00 0.00 0.00 89 1013.2
20260906051832 25 287 1.6 6.4 0.00 0.00 0.00 89 1014.1
20260906051611 25 340 3.2 6.4 0.00 0.00 0.00 89 1013.3
20260906051056 25 334 1.6 6.4 0.00 0.00 0.00 89 1013.3
20260906050553 25 346 1.6 6.4 0.00 0.00 0.00 89 1013.1
20260906050320 25 315 3.2 4.8 0.00 0.00 0.00 89 1014.0
20260906050049 25 272 1.6 4.8 0.00 0.00 0.00 89 1013.1
20260906045547 25 315 1.6 4.8 0.00 0.00 0.00 89 1013.0
20260906045048 25 311 0.0 4.8 0.00 0.00 0.00 90 1012.9
20260906044825 25 281 3.2 6.4 0.00 0.00 0.00 90 1013.9
20260906044550 25 290 1.6 8.0 0.00 0.00 0.00 90 1012.8
20260906044035 25 289 1.6 8.0 0.00 0.00 0.00 90 1012.8
20260906043533 25 277 1.6 4.8 0.00 0.00 0.00 90 1012.7
20260906043331 25 282 1.6 4.8 0.00 0.00 0.00 90 1013.6
20260906043033 25 271 1.6 4.8 0.00 0.00 0.00 90 1012.7
20260906042536 25 290 0.0 4.8 0.00 0.00 0.00 90 1012.7
20260906042041 25 255 0.0 4.8 0.00 0.00 0.00 89 1012.6
20260906041815 26 255 1.6 4.8 0.00 0.00 0.00 89 1013.5
20260906041542 25 255 0.0 4.8 0.00 0.00 0.00 89 1012.5
20260906041040 25 255 1.6 4.8 0.00 0.00 0.00 89 1012.7
20260906040537 25 256 0.0 4.8 0.00 0.00 0.00 89 1012.8
20260906040338 26 265 1.6 3.2 0.00 0.00 0.00 89 1013.8
20260906040023 25 292 1.6 3.2 0.00 0.00 0.00 89 1012.8
20260906035600 26 288 1.6 3.2 0.00 0.00 0.00 88 1012.7
20260906035501 26 252 0.0 3.2 0.00 0.00 0.00 88 1012.7
20260906035057 26 252 0.0 4.8 0.00 0.00 0.00 88 1012.6
20260906034839 26 252 0.0 4.8 0.00 0.00 0.00 88 1013.6
20260906034530 26 238 0.0 4.8 0.00 0.00 0.00 88 1012.6
20260906034026 26 267 0.0 4.8 0.00 0.00 0.00 88 1012.8
20260906033523 26 267 0.0 4.8 0.00 0.00 0.00 88 1012.9
20260906033331 26 266 0.0 4.8 0.00 0.00 0.00 88 1013.7
20260906033038 26 266 0.0 3.2 0.00 0.00 0.00 88 1012.8
20260906032517 26 267 0.0 4.8 0.00 0.00 0.00 88 1012.9
20260906032015 26 267 0.0 4.8 0.00 0.00 0.00 88 1012.9
20260906031820 26 267 1.6 4.8 0.00 0.00 0.00 88 1013.9
20260906031511 26 227 1.6 4.8 0.00 0.00 0.00 87 1012.9
20260906031009 26 260 1.6 4.8 0.00 0.00 0.00 87 1013.0
20260906030508 26 246 0.0 1.6 0.00 0.00 0.00 87 1013.2
20260906030333 26 246 0.0 1.6 0.00 0.00 0.00 87 1014.2
20260906030004 26 246 0.0 3.2 0.00 0.00 0.00 87 1013.3
20260906025559 26 246 0.0 3.2 0.00 0.00 0.00 87 1013.3
20260906025503 26 246 0.0 3.2 0.00 0.00 0.00 87 1013.3
20260906025057 26 246 0.0 3.2 0.00 0.00 0.00 87 1013.4
20260906024814 26 246 0.0 3.2 0.00 0.00 0.00 87 1014.3
20260906024605 26 246 0.0 3.2 0.00 0.00 0.00 87 1013.3
20260906024049 26 246 0.0 3.2 0.00 0.00 0.00 87 1013.3
20260906023544 26 246 0.0 3.2 0.00 0.00 0.00 87 1013.3
20260906023340 26 246 0.0 3.2 0.00 0.00 0.00 87 1014.2
20260906023018 26 294 0.0 3.2 0.00 0.00 0.00 87 1013.3
20260906022515 26 294 0.0 4.8 0.00 0.00 0.00 87 1013.4
20260906022013 26 294 1.6 4.8 0.00 0.00 0.00 87 1013.3
20260906021825 27 277 3.2 4.8 0.00 0.00 0.00 87 1014.2
20260906021512 26 257 1.6 4.8 0.00 0.00 0.00 87 1013.2
20260906021009 26 263 0.0 0.0 0.00 0.00 0.00 86 1013.1
20260906020505 26 263 0.0 1.6 0.00 0.00 0.00 86 1013.1
20260906020333 27 263 0.0 1.6 0.00 0.00 0.00 86 1014.1
20260906020100 26 263 0.0 1.6 0.00 0.00 0.00 86 1013.1
20260906020001 26 263 0.0 1.6 0.00 0.00 0.00 86 1013.1
20260906015557 27 263 0.0 1.6 0.00 0.00 0.00 86 1013.2
20260906015055 27 263 0.0 4.8 0.00 0.00 0.00 86 1013.0
20260906014823 27 232 0.0 4.8 0.00 0.00 0.00 85 1014.0
20260906014551 27 232 0.0 4.8 0.00 0.00 0.00 85 1012.9
20260906014049 27 258 0.0 4.8 0.00 0.00 0.00 85 1012.9
20260906013545 27 258 0.0 4.8 0.00 0.00 0.00 85 1012.8
20260906013316 27 258 1.6 3.2 0.00 0.00 0.00 85 1013.8
20260906013041 27 260 0.0 1.6 0.00 0.00 0.00 84 1012.8
20260906012539 27 260 0.0 1.6 0.00 0.00 0.00 84 1012.8
20260906012033 27 260 0.0 1.6 0.00 0.00 0.00 84 1012.7
20260906011826 27 260 0.0 0.0 0.00 0.00 0.00 84 1013.6
20260906011529 27 260 0.0 1.6 0.00 0.00 0.00 83 1012.5
20260906011029 27 260 0.0 1.6 0.00 0.00 0.00 83 1012.6
20260906010523 27 260 0.0 0.0 0.00 0.00 0.00 82 1012.4
20260906010320 27 260 0.0 0.0 0.00 0.00 0.00 82 1013.2
20260906010019 27 260 0.0 0.0 0.00 0.03 0.00 82 1012.3
20260906005514 27 260 0.0 0.0 0.00 0.03 0.00 82 1012.2
20260906005013 27 260 0.0 0.0 0.00 0.03 0.00 81 1012.0
20260906004830 28 260 0.0 0.0 0.00 0.03 0.00 81 1012.8
20260906004507 27 260 0.0 1.6 0.00 0.03 0.00 81 1011.8
20260906004007 27 260 0.0 3.2 0.00 0.03 0.00 81 1011.6
20260906003503 28 260 0.0 3.2 0.00 0.03 0.00 80 1011.5
20260906003324 28 260 1.6 3.2 0.00 0.03 0.00 80 1012.4
20260906003058 28 260 1.6 3.2 0.00 0.03 0.00 80 1011.4
20260906002559 28 260 0.0 3.2 0.00 0.03 0.00 79 1011.3
20260906002053 28 260 0.0 4.8 0.00 0.03 0.00 79 1011.3
20260906001814 28 260 1.6 4.8 0.00 0.03 0.00 79 1012.3
20260906001549 28 260 0.0 3.2 0.00 0.03 0.00 79 1011.3
20260906001047 28 260 0.0 3.2 0.00 0.03 0.00 79 1011.2
20260906000543 28 260 0.0 4.8 0.00 0.03 0.00 78 1011.2
20260906000326 28 266 1.6 4.8 0.00 0.03 0.00 78 1012.3
20260906000035 28 270 1.6 4.8 0.00 0.20 0.00 78 1011.4
20260905235531 28 292 1.6 6.4 0.00 0.20 0.00 78 1011.4
20260905235033 29 289 1.6 6.4 0.00 0.20 0.00 77 1011.4
20260905234815 29 283 1.6 6.4 0.00 0.20 0.00 77 1012.3
20260905234528 29 283 1.6 6.4 0.00 0.20 0.00 77 1011.4
20260905234023 29 287 1.6 6.4 0.00 0.20 0.00 77 1011.4
20260905233524 29 283 1.6 6.4 0.00 0.20 0.00 77 1011.7
20260905233325 30 266 3.2 6.4 0.00 0.20 0.00 76 1012.5
20260905233017 29 284 1.6 4.8 0.00 0.20 0.00 77 1011.7
20260905232516 30 284 3.2 4.8 0.00 0.20 0.00 76 1011.7
20260905232013 30 275 1.6 4.8 0.00 0.20 0.00 76 1011.8
20260905231832 30 255 1.6 4.8 0.00 0.20 0.00 75 1012.8
20260905231512 30 273 1.6 4.8 0.00 0.20 0.00 75 1011.8
20260905231006 30 263 1.6 4.8 0.00 0.20 0.00 73 1011.8
20260905230504 30 265 1.6 4.8 0.00 0.20 0.00 72 1011.9
20260905230325 31 253 3.2 4.8 0.00 0.20 0.00 71 1012.7
20260905230105 30 246 0.0 6.4 0.00 0.20 0.00 72 1011.8
20260905225554 31 242 0.0 6.4 0.00 0.20 0.00 71 1011.9
20260905225051 31 250 0.0 4.8 0.00 0.20 0.00 70 1011.9
20260905224818 31 250 1.6 4.8 0.00 0.20 0.00 69 1012.8
20260905224610 31 232 0.0 4.8 0.00 0.20 0.00 69 1011.9
20260905224042 31 246 0.0 3.2 0.00 0.20 0.00 69 1011.9
20260905223537 31 292 0.0 6.4 0.00 0.20 0.00 69 1011.9
20260905223330 31 238 0.0 6.4 0.00 0.20 0.00 68 1012.8
20260905223043 31 232 3.2 6.4 0.00 0.20 0.00 67 1011.9
20260905222534 31 208 0.0 6.4 0.00 0.20 0.00 68 1011.9
20260905222028 31 185 1.6 6.4 0.00 0.20 0.00 67 1012.1
20260905221820 32 213 1.6 6.4 0.00 0.20 0.00 66 1013.0
20260905221525 31 196 0.0 6.4 0.00 0.20 0.00 66 1012.1
20260905221021 31 202 1.6 8.0 0.00 0.20 0.00 66 1012.0
20260905220517 31 190 3.2 8.0 0.00 0.20 0.00 65 1011.9
20260905220314 32 207 1.6 6.4 0.00 0.20 0.00 65 1012.9
20260905220013 32 163 1.6 6.4 0.00 0.20 0.00 66 1011.9
20260905215509 32 230 0.0 4.8 0.00 0.20 0.00 66 1012.0
20260905215009 32 155 1.6 4.8 0.00 0.20 0.00 66 1012.1
20260905214822 32 213 1.6 4.8 0.00 0.20 0.00 66 1012.9
20260905214503 32 239 0.0 8.0 0.00 0.20 0.00 65 1012.0
20260905214059 32 200 3.2 8.0 0.00 0.20 0.00 65 1012.0
20260905214001 32 192 3.2 8.0 0.00 0.20 0.00 65 1012.0
20260905213554 32 224 1.6 8.0 0.00 0.20 0.00 65 1012.1
20260905213351 32 216 3.2 6.4 0.00 0.20 0.00 64 1013.0
20260905213032 32 227 1.6 6.4 0.00 0.20 0.00 64 1012.1
20260905212533 32 224 1.6 8.0 0.00 0.20 0.00 63 1012.2
20260905212020 32 182 0.0 8.0 0.00 0.20 0.00 63 1012.1
20260905211836 33 282 1.6 8.0 0.00 0.20 0.00 62 1013.0
20260905211556 33 239 1.6 9.7 0.00 0.20 0.00 61 1012.2
20260905211051 33 242 3.2 12.9 0.00 0.20 0.00 62 1012.3
20260905210547 33 173 3.2 12.9 0.00 0.20 0.00 63 1012.4
20260905210327 33 142 3.2 12.9 0.00 0.20 0.00 62 1013.2
20260905210052 33 189 3.2 11.3 0.00 0.46 0.00 63 1012.5
20260905205535 33 247 1.6 9.7 0.00 0.46 0.00 63 1012.5
20260905205037 32 215 4.8 12.9 0.00 0.46 0.00 65 1012.4
20260905204813 33 242 3.2 12.9 0.00 0.46 0.00 65 1013.2
20260905204535 32 283 4.8 12.9 0.00 0.46 0.00 65 1012.3
20260905204023 32 212 4.8 11.3 0.00 0.46 0.00 67 1012.3
20260905203525 32 230 3.2 11.3 0.00 0.46 0.00 67 1012.2
20260905203343 32 218 4.8 11.3 0.00 0.46 0.00 68 1013.1
20260905203003 31 252 3.2 11.3 0.00 0.46 0.00 68 1012.2
20260905202558 32 259 4.8 11.3 0.00 0.46 0.00 66 1012.4
20260905202502 31 220 3.2 12.9 0.00 0.46 0.00 67 1012.3
20260905202058 31 291 4.8 12.9 0.00 0.46 0.00 66 1012.3
20260905202002 31 259 6.4 12.9 0.00 0.46 0.00 65 1012.3
20260905201827 32 262 4.8 11.3 0.00 0.46 0.00 65 1013.2
20260905201507 31 266 6.4 14.5 0.00 0.46 0.00 64 1012.3
20260905201010 31 288 3.2 14.5 0.00 0.46 0.00 68 1012.4
20260905200512 32 251 4.8 14.5 0.00 0.46 0.00 65 1012.4
20260905200314 32 272 6.4 14.5 0.00 0.46 0.00 63 1013.4
20260905200020 32 263 8.0 14.5 0.00 0.46 0.00 62 1012.5
20260905195512 33 254 6.4 11.3 0.00 0.46 0.00 61 1012.6
20260905195008 33 255 1.6 11.3 0.00 0.46 0.00 61 1012.7
20260905194819 34 222 1.6 11.3 0.00 0.46 0.00 59 1013.6
20260905194508 33 242 3.2 11.3 0.00 0.46 0.00 61 1012.7
20260905194008 33 258 3.2 9.7 0.00 0.46 0.00 62 1012.8
20260905193508 33 311 3.2 12.9 0.00 0.46 0.00 63 1013.0
20260905193326 33 279 4.8 12.9 0.00 0.46 0.00 62 1013.9
20260905193005 33 226 1.6 12.9 0.00 0.46 0.00 64 1013.0
20260905192506 33 292 4.8 12.9 0.00 0.46 0.00 64 1013.3
20260905192009 33 254 3.2 9.7 0.00 0.46 0.00 62 1013.2
20260905191831 33 210 4.8 14.5 0.00 0.46 0.00 61 1014.1
20260905191505 33 227 3.2 14.5 0.00 0.46 0.00 63 1013.1
20260905191100 33 221 4.8 14.5 0.00 0.46 0.00 61 1013.2
20260905191002 33 193 3.2 12.9 0.00 0.46 0.00 63 1013.1
20260905190600 32 103 1.6 12.9 0.00 0.46 0.00 67 1013.3
20260905190504 32 202 3.2 12.9 0.00 0.46 0.00 67 1013.3
20260905190318 32 297 6.4 12.9 0.00 0.46 0.00 65 1014.2
20260905190008 32 283 6.4 12.9 0.00 0.46 0.00 63 1013.3
20260905185514 32 288 1.6 16.1 0.00 0.46 0.00 63 1013.3
20260905185020 32 321 4.8 16.1 0.00 0.46 0.00 63 1013.4
20260905184825 32 290 6.4 16.1 0.00 0.46 0.00 64 1014.3
20260905184530 32 296 4.8 12.9 0.00 0.46 0.00 64 1013.4
20260905184031 33 257 3.2 11.3 0.00 0.46 0.00 62 1013.4
20260905183526 32 205 3.2 11.3 0.00 0.46 0.00 62 1013.4
20260905183333 32 232 4.8 11.3 0.00 0.46 0.00 66 1014.5
20260905183028 32 214 1.6 8.0 0.00 0.46 0.00 68 1013.6
20260905182533 32 280 4.8 12.9 0.00 0.46 0.00 66 1013.6
20260905182033 32 257 6.4 12.9 0.00 0.46 0.00 67 1013.7
20260905181839 32 267 4.8 12.9 0.00 0.46 0.00 66 1014.6
20260905181512 32 251 3.2 12.9 0.00 0.46 0.00 64 1013.8
20260905181008 32 153 1.6 6.4 0.00 0.46 0.00 66 1013.9
20260905180506 31 223 1.6 9.7 0.00 0.46 0.00 66 1014.0
20260905180325 32 284 1.6 9.7 0.00 0.46 0.00 66 1014.9
20260905180047 31 213 1.6 9.7 0.00 0.46 0.00 69 1014.0
20260905175543 31 286 3.2 9.7 0.00 0.46 0.00 68 1014.3
20260905175044 31 211 3.2 11.3 0.00 0.46 0.00 68 1014.4
20260905174829 31 267 4.8 11.3 0.00 0.46 0.00 68 1015.2
20260905174526 31 289 6.4 11.3 0.00 0.46 0.00 68 1014.4
20260905174030 31 215 3.2 11.3 0.00 0.46 0.00 68 1014.5
20260905173535 31 225 3.2 11.3 0.00 0.46 0.00 69 1014.6
20260905173318 31 295 4.8 11.3 0.00 0.46 0.00 68 1015.6
20260905173026 31 171 1.6 8.0 0.00 0.46 0.00 68 1014.7
20260905172524 31 201 1.6 8.0 0.00 0.46 0.00 69 1014.6
20260905172023 30 282 3.2 12.9 0.00 0.46 0.00 70 1014.7
20260905171831 31 226 1.6 12.9 0.00 0.46 0.00 72 1015.6
20260905171519 30 273 3.2 9.7 0.00 0.46 0.00 70 1014.8
20260905171014 30 195 1.6 9.7 0.00 0.46 0.00 71 1015.0
20260905170512 31 271 1.6 11.3 0.00 0.46 0.00 69 1014.9
20260905170323 31 234 1.6 11.3 0.00 0.46 0.00 69 1015.8
20260905170011 31 241 3.2 11.3 0.00 0.46 0.00 69 1015.0
20260905165506 31 193 1.6 9.7 0.00 0.46 0.00 71 1015.0
20260905165056 31 212 3.2 11.3 0.00 0.46 0.00 71 1015.0
20260905164832 31 270 3.2 11.3 0.00 0.46 0.00 72 1016.0
20260905164539 31 217 3.2 11.3 0.00 0.46 0.00 70 1015.0
20260905164038 30 5 1.6 6.4 0.00 0.46 0.00 72 1015.1
20260905163533 30 211 1.6 8.0 0.00 0.46 0.00 73 1015.2
20260905163323 30 195 3.2 8.0 0.00 0.46 0.00 74 1016.1
20260905163027 30 315 3.2 8.0 0.00 0.46 0.00 72 1015.4
20260905162528 30 256 1.6 8.0 0.00 0.46 0.00 71 1015.4
20260905162023 30 255 1.6 6.4 0.00 0.46 0.00 71 1015.4
20260905161835 30 188 1.6 8.0 0.00 0.46 0.00 72 1016.3
20260905161606 30 206 0.0 8.0 0.00 0.46 0.00 72 1015.4
20260905161052 30 136 3.2 8.0 0.00 0.46 0.00 73 1015.5
20260905160544 29 155 1.6 9.7 0.00 0.46 0.00 73 1015.6
20260905160343 30 223 3.2 9.7 0.00 0.46 0.00 74 1016.4
20260905160019 29 192 4.8 9.7 0.00 0.46 0.00 75 1015.5
20260905155517 28 304 3.2 8.0 0.00 0.46 0.00 79 1015.5
20260905155014 28 304 1.6 8.0 0.00 0.46 0.00 78 1015.6
20260905154833 28 292 4.8 8.0 0.00 0.46 0.00 76 1016.5
20260905154511 28 195 1.6 9.7 0.00 0.46 0.00 78 1015.6
20260905154007 27 205 3.2 9.7 0.00 0.46 0.00 79 1015.6
20260905153601 27 292 3.2 9.7 0.00 0.46 0.00 80 1015.8
20260905153502 27 293 3.2 9.7 0.00 0.46 0.00 80 1015.9
20260905153323 27 255 3.2 9.7 0.00 0.46 0.00 80 1016.8
20260905153056 27 262 0.0 4.8 0.00 0.46 0.00 80 1015.9
20260905152554 27 284 1.6 6.4 0.00 0.46 0.00 80 1016.0
20260905152050 27 313 1.6 6.4 0.00 0.46 0.00 80 1016.0
20260905151814 27 293 3.2 6.4 0.00 0.46 0.00 80 1016.9
20260905151546 27 304 1.6 6.4 0.00 0.46 0.00 80 1016.0
20260905151044 27 199 0.0 6.4 0.00 0.46 0.00 81 1016.1
20260905150542 27 301 3.2 6.4 0.00 0.46 0.00 81 1016.0
20260905150326 27 271 1.6 6.4 0.00 0.46 0.00 82 1016.8
20260905150034 26 277 0.0 8.0 0.00 0.46 0.00 81 1015.9
20260905145533 26 270 3.2 8.0 0.00 0.46 0.00 81 1016.0
20260905145028 26 320 1.6 8.0 0.00 0.46 0.00 82 1016.0
20260905144853 26 297 1.6 8.0 0.00 0.46 0.00 82 1016.9
20260905144601 26 273 1.6 8.0 0.00 0.46 0.00 82 1016.0
20260905144506 26 273 1.6 8.0 0.00 0.46 0.00 83 1016.1
20260905144058 26 278 3.2 8.0 0.00 0.46 0.00 82 1016.1
20260905143556 26 310 1.6 8.0 0.00 0.46 0.00 83 1016.2
20260905143323 26 5 4.8 12.9 0.00 0.46 0.00 82 1017.1
20260905143052 26 277 3.2 12.9 0.00 0.46 0.00 82 1016.2
20260905142552 26 296 4.8 12.9 0.00 0.46 0.00 83 1016.1
20260905142047 26 257 3.2 12.9 0.00 0.46 0.00 85 1016.1
20260905141825 26 289 6.4 12.9 0.00 0.46 0.00 85 1017.0
20260905141544 26 280 4.8 11.3 0.00 0.46 0.00 86 1016.1
20260905141034 25 283 4.8 11.3 0.00 0.46 0.00 86 1016.0
20260905140532 25 260 4.8 11.3 0.00 0.46 0.00 86 1015.8
20260905140329 25 293 6.4 11.3 0.00 0.46 0.00 87 1016.8
20260905140028 25 240 3.2 6.4 0.00 0.46 0.00 88 1015.9
20260905135526 25 312 1.6 11.3 0.00 0.46 0.00 88 1016.1
20260905135025 25 260 1.6 11.3 0.00 0.46 0.00 89 1016.0
20260905134849 25 282 3.2 11.3 0.00 0.46 0.00 89 1017.0
20260905134558 25 267 3.2 8.0 0.00 0.46 0.00 89 1016.1
20260905134054 25 238 3.2 12.9 0.00 0.46 0.00 90 1015.9
20260905133550 24 265 4.8 12.9 0.00 0.46 0.00 91 1016.0
20260905133332 24 286 4.8 9.7 0.00 0.46 0.00 91 1016.9
20260905133048 24 264 0.0 11.3 0.00 0.46 0.00 91 1015.9
20260905132547 24 240 4.8 11.3 0.00 0.46 0.00 92 1016.0
20260905132046 24 265 1.6 11.3 0.00 0.46 0.00 92 1016.0
20260905131851 24 300 3.2 11.3 0.00 0.46 0.00 92 1016.8
20260905131530 23 253 4.8 11.3 0.00 0.46 0.00 92 1016.0
20260905131030 23 273 3.2 11.3 0.00 0.46 0.00 92 1016.2
20260905130535 23 292 0.0 11.3 0.00 0.46 0.00 92 1016.1
20260905130333 23 281 3.2 11.3 0.00 0.46 0.00 92 1016.9
20260905130036 23 279 3.2 6.4 0.00 0.46 0.00 92 1016.0
20260905125538 23 238 1.6 4.8 0.00 0.46 0.00 92 1016.0